Del Norte, CO

2:52 AM MST on February 11, 2016 (GMT -0700)
Wolf Creek Pass

Weather History for KCPW - November, 2012

Change the Weather History Date:

Wednesday, November 28, 2012

  Actual Average (KALS) Record (KALS)
Temperature  
Mean Temperature 26 °F 23 °F  
Max Temperature 32 °F 40 °F 65 °F (1949)
Min Temperature 21 °F 6 °F -23 °F (1976)
Degree Days  
Heating Degree Days 38 42  
Month to date heating degree days 980  
Since 1 July heating degree days 2090  
Cooling Degree Days 0 0  
Month to date cooling degree days 0  
Year to date cooling degree days 51  
Moisture  
Dew Point 6 °F    
Average Humidity 45    
Maximum Humidity 68    
Minimum Humidity 28    
Precipitation  
Precipitation 0.00 in 0.01 in 0.40 in (1997)
Month to date precipitation 0.40  
Year to date precipitation 6.94  
Snow  
Snow 0.00 in 0.10 in 4.50 in (1997)
Month to date snowfall 3.4  
Since 1 July snowfall 5.5  
Since 1 September snowfall 5.5  
Snow Depth -    
Sea Level Pressure  
Sea Level Pressure 30.43 in    
Wind  
Wind Speed 15 mph (SW)    
Max Wind Speed 24 mph    
Max Gust Speed 31 mph    
Visibility 10 miles    
Events      
T = Trace of Precipitation, MM = Missing Value Source: NWS Daily Summary

Daily Weather History Graph

Daily Weather History Graph

Search for Another Location

Airport or City:

Trip Planner

Search our weather history database for the weather conditions in past years. The results will help you decide how hot, cold, wet, or windy it might be!

Date:

Astronomy

Nov. 28, 2012 Rise Set
Actual Time 7:00 AM MST 4:49 PM MST
Civil Twilight 6:31 AM MST 5:18 PM MST
Nautical Twilight 5:59 AM MST 5:50 PM MST
Astronomical Twilight 5:28 AM MST 6:22 PM MST
Moon 5:07 PM MST (11/28) 7:00 AM MST (11/28)
Length of Visible Light 10h 46m
Length of Day
9h 49m
Full, 100% of the Moon is Illuminated
Nov 28
Full
Dec 6
Last Quarter
Dec 13
New
Dec 19
First Quarter
Dec 28
Full

Hourly Weather History & Observations

Time (MST) Temp. Windchill Dew Point Humidity Pressure Visibility Wind Dir Wind Speed Gust Speed Precip Events Conditions
12:02 AM 23.0 °F 10.6 °F 3.2 °F 43% 30.48 in 10.0 mi SW 13.8 mph - N/A   Clear
12:22 AM 23.0 °F 9.6 °F 3.2 °F 43% 30.48 in 10.0 mi SW 16.1 mph - N/A   Clear
12:42 AM 23.0 °F 9.2 °F 3.2 °F 43% 30.48 in 10.0 mi SW 17.3 mph - N/A   Clear
1:02 AM 23.0 °F 10.1 °F 3.2 °F 43% 30.47 in 10.0 mi SW 15.0 mph - N/A   Clear
1:22 AM 21.2 °F 8.3 °F 3.2 °F 46% 30.47 in 10.0 mi SW 13.8 mph - N/A   Clear
1:42 AM 23.0 °F 10.1 °F 3.2 °F 43% 30.47 in 10.0 mi SSW 15.0 mph - N/A   Clear
2:02 AM 23.0 °F 9.6 °F 3.2 °F 43% 30.47 in 10.0 mi SW 16.1 mph - N/A   Clear
2:22 AM 23.0 °F 9.6 °F 3.2 °F 43% 30.47 in 10.0 mi SSW 16.1 mph - N/A   Clear
2:42 AM 23.0 °F 10.6 °F 3.2 °F 43% 30.47 in 10.0 mi SSW 13.8 mph - N/A   Clear
3:02 AM 23.0 °F 9.6 °F 3.2 °F 43% 30.47 in 10.0 mi SW 16.1 mph - N/A   Clear
3:22 AM 23.0 °F 9.6 °F 3.2 °F 43% 30.47 in 10.0 mi SW 16.1 mph - N/A   Clear
3:42 AM 23.0 °F 10.1 °F 3.2 °F 43% 30.47 in 10.0 mi SW 15.0 mph - N/A   Clear
4:02 AM 23.0 °F 10.1 °F 3.2 °F 43% 30.46 in 10.0 mi SW 15.0 mph - N/A   Clear
4:22 AM 24.8 °F 14.0 °F -4.0 °F 28% 30.46 in 10.0 mi SW 11.5 mph 19.6 mph N/A   Clear
4:42 AM 23.0 °F 10.1 °F -0.4 °F 36% 30.46 in 10.0 mi SW 15.0 mph - N/A   Clear
5:02 AM 23.0 °F 11.1 °F -0.4 °F 36% 30.46 in 10.0 mi SW 12.7 mph - N/A   Clear
5:22 AM 23.0 °F 11.7 °F -2.2 °F 33% 30.47 in 10.0 mi SW 11.5 mph - N/A   Clear
5:42 AM 23.0 °F 11.1 °F -2.2 °F 33% 30.47 in 10.0 mi SW 12.7 mph - N/A   Clear
6:02 AM 23.0 °F 10.6 °F -4.0 °F 31% 30.47 in 10.0 mi SW 13.8 mph - N/A   Clear
6:22 AM 23.0 °F 10.1 °F -4.0 °F 31% 30.47 in 10.0 mi SW 15.0 mph - N/A   Clear
6:42 AM 23.0 °F 8.7 °F -5.8 °F 28% 30.47 in 10.0 mi SW 18.4 mph - N/A   Clear
7:02 AM 23.0 °F 9.6 °F -5.8 °F 28% 30.47 in 10.0 mi SW 16.1 mph - N/A   Clear
7:22 AM 23.0 °F 9.6 °F -5.8 °F 28% 30.47 in 10.0 mi SW 16.1 mph - N/A   Clear
7:42 AM 23.0 °F 10.1 °F -4.0 °F 31% 30.47 in 10.0 mi SW 15.0 mph - N/A   Clear
8:02 AM 24.8 °F 12.4 °F -2.2 °F 31% 30.47 in 10.0 mi SW 15.0 mph - N/A   Clear
8:22 AM 26.6 °F 16.8 °F -2.2 °F 29% 30.47 in 10.0 mi SW 10.4 mph - N/A   Clear
8:42 AM 24.8 °F 13.4 °F -0.4 °F 34% 30.48 in 10.0 mi SSW 12.7 mph - N/A   Clear
9:02 AM 26.6 °F 15.7 °F -0.4 °F 31% 30.48 in 10.0 mi SW 12.7 mph - N/A   Clear
9:22 AM 26.6 °F 16.2 °F 1.4 °F 34% 30.48 in 10.0 mi SSW 11.5 mph - N/A   Clear
9:42 AM 28.4 °F 20.4 °F 3.2 °F 34% 30.49 in 10.0 mi SW 8.1 mph - N/A   Clear
10:02 AM 28.4 °F 19.1 °F 3.2 °F 34% 30.48 in 10.0 mi SW 10.4 mph - N/A   Clear
10:22 AM 28.4 °F 18.0 °F 5.0 °F 37% 30.48 in 10.0 mi SW 12.7 mph - N/A   Clear
10:42 AM 30.2 °F 20.8 °F 5.0 °F 34% 30.48 in 10.0 mi SSW 11.5 mph - N/A   Clear
11:02 AM 30.2 °F 20.8 °F 5.0 °F 34% 30.47 in 10.0 mi SSW 11.5 mph 19.6 mph N/A   Clear
11:42 AM 32.0 °F 24.2 °F 6.8 °F 35% 30.45 in 10.0 mi SSW 9.2 mph - N/A   Clear
12:02 PM 32.0 °F 23.6 °F 5.0 °F 32% 30.44 in 10.0 mi SSW 10.4 mph 17.3 mph N/A   Clear
12:22 PM 32.0 °F 23.0 °F 6.8 °F 35% 30.43 in 10.0 mi SSW 11.5 mph 18.4 mph N/A   Clear
12:42 PM 32.0 °F 23.6 °F 6.8 °F 35% 30.42 in 10.0 mi SSW 10.4 mph 18.4 mph N/A   Clear
1:02 PM 32.0 °F 21.6 °F 8.6 °F 38% 30.41 in 10.0 mi SSW 15.0 mph 23.0 mph N/A   Clear
1:22 PM 32.0 °F 22.5 °F 8.6 °F 38% 30.41 in 10.0 mi SSW 12.7 mph 26.5 mph N/A   Clear
1:42 PM 32.0 °F 22.1 °F 8.6 °F 38% 30.40 in 10.0 mi SSW 13.8 mph 23.0 mph N/A   Clear
2:02 PM 32.0 °F 22.1 °F 10.4 °F 41% 30.39 in 10.0 mi SSW 13.8 mph 21.9 mph N/A   Clear
2:22 PM 32.0 °F 24.8 °F 10.4 °F 41% 30.39 in 10.0 mi SSW 8.1 mph 21.9 mph N/A   Clear
2:42 PM 32.0 °F 23.0 °F 10.4 °F 41% 30.38 in 10.0 mi SW 11.5 mph 20.7 mph N/A   Clear
3:02 PM 32.0 °F 22.5 °F 10.4 °F 41% 30.38 in 10.0 mi SW 12.7 mph 21.9 mph N/A   Clear
3:22 PM 32.0 °F 22.5 °F 10.4 °F 41% 30.37 in 10.0 mi SSW 12.7 mph 19.6 mph N/A   Clear
3:42 PM 32.0 °F 24.2 °F 10.4 °F 41% 30.37 in 10.0 mi SW 9.2 mph 18.4 mph N/A   Clear
4:02 PM 30.2 °F 18.9 °F 10.4 °F 44% 30.37 in 10.0 mi SSW 16.1 mph 21.9 mph N/A   Clear
4:22 PM 28.4 °F 18.5 °F 10.4 °F 47% 30.38 in 10.0 mi SSW 11.5 mph 24.2 mph N/A   Clear
4:42 PM 28.4 °F 15.8 °F 12.2 °F 51% 30.38 in 10.0 mi SSW 18.4 mph 24.2 mph N/A   Clear
5:02 PM 26.6 °F 13.1 °F 10.4 °F 51% 30.37 in 10.0 mi SW 19.6 mph 24.2 mph N/A   Clear
5:22 PM 26.6 °F 13.1 °F 10.4 °F 51% 30.37 in 10.0 mi SW 19.6 mph 26.5 mph N/A   Clear
5:42 PM 26.6 °F 14.3 °F 10.4 °F 51% 30.37 in 10.0 mi SW 16.1 mph 21.9 mph N/A   Clear
6:02 PM 24.8 °F 11.1 °F 12.2 °F 59% 30.37 in 10.0 mi SW 18.4 mph - N/A   Clear
6:22 PM 24.8 °F 11.5 °F 12.2 °F 59% 30.36 in 10.0 mi SW 17.3 mph - N/A   Clear
6:42 PM 23.0 °F 10.1 °F 12.2 °F 63% 30.36 in 10.0 mi SW 15.0 mph 20.7 mph N/A   Clear
7:02 PM 23.0 °F 10.1 °F 12.2 °F 63% 30.37 in 10.0 mi SW 15.0 mph 21.9 mph N/A   Clear
7:22 PM 23.0 °F 8.3 °F 12.2 °F 63% 30.37 in 10.0 mi SW 19.6 mph 24.2 mph N/A   Clear
7:42 PM 23.0 °F 8.7 °F 12.2 °F 63% 30.36 in 10.0 mi SW 18.4 mph 26.5 mph N/A   Clear
8:02 PM 23.0 °F 6.9 °F 12.2 °F 63% 30.37 in 10.0 mi SW 24.2 mph 28.8 mph N/A   Clear
8:22 PM 23.0 °F 8.0 °F 12.2 °F 63% 30.37 in 10.0 mi SW 20.7 mph 26.5 mph N/A   Clear
8:42 PM 23.0 °F 7.2 °F 12.2 °F 63% 30.37 in 10.0 mi SW 23.0 mph 28.8 mph N/A   Clear
9:02 PM 24.8 °F 10.0 °F 12.2 °F 59% 30.37 in 10.0 mi SW 21.9 mph 28.8 mph N/A   Clear
9:22 PM 23.0 °F 9.6 °F 12.2 °F 63% 30.38 in 10.0 mi WSW 16.1 mph 21.9 mph N/A   Clear
9:42 PM 23.0 °F 7.6 °F 12.2 °F 63% 30.37 in 10.0 mi SW 21.9 mph - N/A   Clear
10:02 PM 23.0 °F 8.0 °F 12.2 °F 63% 30.38 in 10.0 mi SW 20.7 mph - N/A   Clear
10:22 PM 23.0 °F 8.3 °F 12.2 °F 63% 30.38 in 10.0 mi SW 19.6 mph 26.5 mph N/A   Clear
10:42 PM 23.0 °F 7.6 °F 12.2 °F 63% 30.38 in 10.0 mi SW 21.9 mph 31.1 mph N/A   Clear
11:02 PM 23.0 °F 8.0 °F 12.2 °F 63% 30.39 in 10.0 mi SW 20.7 mph 26.5 mph N/A   Clear
11:22 PM 23.0 °F 9.6 °F 14.0 °F 68% 30.38 in 10.0 mi SW 16.1 mph 25.3 mph N/A   Clear
11:42 PM 23.0 °F 9.6 °F 14.0 °F 68% 30.38 in 10.0 mi SW 16.1 mph - N/A   Clear